Alexandria, MN

11:52 PM CDT on September 22, 2017 (GMT -0500)
Chandler

Weather History for KAXN - May, 2013

Change the Weather History Date:

Wednesday, May 1, 2013

  Actual Average Record
Temperature  
Mean Temperature 36 °F -  
Max Temperature 41 °F 57 °F 97 °F (1959)
Min Temperature 30 °F 38 °F 24 °F (1961)
Degree Days  
Heating Degree Days 30    
Moisture  
Dew Point 24 °F    
Average Humidity 64    
Maximum Humidity 73    
Minimum Humidity 53    
Precipitation  
Precipitation 0.00 in - - ()
Sea Level Pressure  
Sea Level Pressure 30.36 in    
Wind  
Wind Speed 15 mph (NNW)    
Max Wind Speed 18 mph    
Max Gust Speed 23 mph    
Visibility 10 miles    
Events      
Averages and records for this station are not official NWS values.
T = Trace of Precipitation, MM = Missing Value Source: NWS Daily Summary

Daily Weather History Graph

Daily Weather History Graph

Search for Another Location

Airport or City:

Trip Planner

Search our weather history database for the weather conditions in past years. The results will help you decide how hot, cold, wet, or windy it might be!

Date:

Astronomy

May. 01, 2013 Rise Set
Actual Time 6:08 AM CDT 8:29 PM CDT
Civil Twilight 5:35 AM CDT 9:02 PM CDT
Nautical Twilight 4:54 AM CDT 9:44 PM CDT
Astronomical Twilight 4:07 AM CDT 10:30 PM CDT
Moon 1:40 AM CDT (5/1) 11:48 AM CDT (5/1)
Length of Visible Light 15h 27m
Length of Day
14h 21m
Waning Gibbous, 59% of the Moon is Illuminated
May 1
Waning Gibbous
May 2
Last Quarter
May 9
New
May 17
First Quarter
May 24
Full

Hourly Weather History & Observations

Time (CDT) Temp. Windchill Dew Point Humidity Pressure Visibility Wind Dir Wind Speed Gust Speed Precip Events Conditions
12:53 AM 39.0 °F 29.9 °F 28.9 °F 67% 30.06 in 10.0 mi NNW 17.3 mph 23.0 mph N/A   Clear
1:53 AM 37.0 °F 28.1 °F 27.0 °F 67% 30.13 in 10.0 mi NW 15.0 mph - N/A   Overcast
2:45 AM 35.6 °F 26.2 °F 26.6 °F 70% 30.11 in 10.0 mi NW 15.0 mph 20.7 mph N/A   Mostly Cloudy
2:53 AM 36.0 °F 28.0 °F 27.0 °F 70% 30.13 in 10.0 mi NNW 11.5 mph - N/A   Mostly Cloudy
3:53 AM 34.0 °F 24.2 °F 26.1 °F 73% 30.14 in 10.0 mi NW 15.0 mph - N/A   Mostly Cloudy
4:46 AM 33.8 °F 22.8 °F 23.0 °F 65% 30.16 in 10.0 mi NW 18.4 mph - N/A   Scattered Clouds
4:53 AM 33.1 °F 23.0 °F 23.0 °F 66% 30.19 in 10.0 mi NW 15.0 mph - N/A   Partly Cloudy
5:53 AM 32.0 °F 22.5 °F 19.9 °F 61% 30.23 in 10.0 mi NW 12.7 mph - N/A   Scattered Clouds
6:53 AM 30.9 °F 20.7 °F 21.0 °F 67% 30.29 in 10.0 mi WNW 13.8 mph - N/A   Scattered Clouds
7:53 AM 30.9 °F 21.7 °F 21.0 °F 67% 30.32 in 10.0 mi NW 11.5 mph 21.9 mph N/A   Partly Cloudy
8:53 AM 30.9 °F 20.7 °F 21.0 °F 67% 30.34 in 10.0 mi NW 13.8 mph - N/A   Partly Cloudy
9:53 AM 33.1 °F 23.9 °F 23.0 °F 66% 30.35 in 10.0 mi NW 12.7 mph - N/A   Scattered Clouds
10:01 AM 33.8 °F 23.9 °F 21.2 °F 60% 30.31 in 10.0 mi NW 15.0 mph - N/A   Mostly Cloudy
11:53 AM 36.0 °F 26.7 °F 23.0 °F 59% 30.40 in 10.0 mi NNW 15.0 mph - N/A   Scattered Clouds
12:53 PM 36.0 °F 26.0 °F 23.0 °F 59% 30.43 in 10.0 mi NNW 17.3 mph - N/A   Mostly Cloudy
1:53 PM 37.9 °F 28.5 °F 24.1 °F 57% 30.45 in 10.0 mi NW 17.3 mph - N/A   Partly Cloudy
2:53 PM 39.0 °F 30.3 °F 24.1 °F 55% 30.45 in 10.0 mi NNW 16.1 mph 21.9 mph N/A   Clear
3:53 PM 41.0 °F 32.8 °F 25.0 °F 53% 30.47 in 10.0 mi North 16.1 mph 23.0 mph N/A   Clear
4:53 PM 39.9 °F 31.8 °F 25.0 °F 55% 30.49 in 10.0 mi North 15.0 mph - N/A   Clear
5:53 PM 39.0 °F 30.3 °F 25.0 °F 57% 30.51 in 10.0 mi North 16.1 mph - N/A   Clear
6:53 PM 39.0 °F 31.0 °F 26.1 °F 60% 30.53 in 10.0 mi North 13.8 mph 21.9 mph N/A   Clear
7:53 PM 37.0 °F 28.1 °F 26.1 °F 65% 30.57 in 10.0 mi North 15.0 mph 21.9 mph N/A   Clear
8:53 PM 35.1 °F 25.9 °F 26.1 °F 70% 30.58 in 10.0 mi North 13.8 mph - N/A   Clear
9:53 PM 34.0 °F 25.0 °F 25.0 °F 70% 30.60 in 10.0 mi North 12.7 mph - N/A   Clear
10:53 PM 33.1 °F 24.4 °F 24.1 °F 70% 30.60 in 10.0 mi North 11.5 mph - N/A   Clear
11:53 PM 32.0 °F 24.2 °F 24.1 °F 73% 30.61 in 10.0 mi North 9.2 mph - N/A   Clear